Location: Kapla
(46.2483°N, 15.0094°E)
Time: 19:15:29
(UTC+00:00)

SJ-6B - Pass Details

Date: 03 March 2021
Orbit: 509 x 581 km, 97.6° (Epoch: 22 April)

Event Time Altitude Azimuth Distance (km) Brightness Sun altitude
Exits shadow 17:45:55 14° 105° (ESE) 1,635 4.6 -10.6°
Maximum altitude 17:48:08 21° 65° (ENE) 1,314 4.2 -11.0°
Drops below altitude 10° 17:51:12 10° 16° (NNE) 1,878 5.4 -11.5°
Sets 17:53:43 0° 1° (N) 2,768 6.4 -12.0°
